period_start,C,m1,H,J0,J1,J2,J3,J4,J5,JA,JB,JC,JD,JJ,JK,JN,#
2018-06-25 00:00:17,-0.01,0.48,0.00,30.86,34.56,36.95,13.48,45.59,1015.16,1996.15,3096.00,2916.00,3334.99,600.03,579.82,8.14,0000 0000 0000 0000 000000
2018-06-25 00:05:19,0.01,0.48,0.00,30.85,34.55,36.93,13.45,45.48,1015.23,1996.24,3095.97,2916.00,3334.95,599.92,579.73,8.19,0000 0000 0000 0000 000000
2018-06-25 00:10:20,0.04,0.48,0.00,30.82,34.53,36.92,13.50,45.38,1015.41,1996.53,3095.87,2916.00,3334.95,599.83,579.84,8.24,0000 0000 0000 0000 000000
2018-06-25 00:15:21,0.03,0.48,0.00,30.80,34.52,36.91,13.53,45.48,1015.59,1996.79,3095.48,2916.00,3334.77,600.08,579.93,8.29,0000 0000 0000 0000 000000
2018-06-25 00:20:23,0.01,0.49,0.00,30.78,34.50,36.90,13.53,45.45,1015.63,1996.85,3095.02,2915.99,3334.31,600.02,580.34,8.34,0000 0000 0000 0000 000000
2018-06-25 00:25:24,0.01,0.49,0.00,30.76,34.48,36.88,13.40,45.16,1015.64,1996.91,3095.00,2915.96,3334.08,599.64,579.97,8.39,0000 0000 0000 0000 000000
2018-06-25 00:30:26,0.01,0.49,0.00,30.75,34.47,36.87,13.57,45.42,1015.65,1996.95,3094.77,2915.77,3334.00,600.37,580.59,8.44,0000 0000 0000 0000 000000
2018-06-25 00:35:27,0.01,0.49,0.00,30.72,34.45,36.85,13.52,45.34,1015.66,1996.99,3094.24,2915.60,3334.00,600.59,580.91,8.50,0000 0000 0000 0000 000000
2018-06-25 00:40:28,0.01,0.49,0.00,30.71,34.44,36.86,13.57,45.20,1015.66,1996.99,3094.02,2915.39,3333.99,600.29,580.65,8.55,0000 0000 0000 0000 000000
2018-06-25 00:45:29,0.00,0.49,0.00,30.69,34.42,36.83,13.47,45.22,1015.69,1996.99,3094.00,2915.24,3333.98,599.47,579.88,8.60,0000 0000 0000 0000 000000
2018-06-25 00:50:30,0.02,0.49,0.00,30.67,34.40,36.82,13.45,45.25,1015.68,1996.99,3093.69,2915.06,3333.75,599.88,580.35,8.65,0000 0000 0000 0000 000000
2018-06-25 00:55:31,0.01,0.49,0.00,30.65,34.39,36.81,13.54,45.36,1015.65,1996.99,3093.03,2915.00,3333.15,600.13,580.68,8.70,0000 0000 0000 0000 000000
2018-06-25 01:00:33,-0.01,0.49,0.00,30.63,34.37,36.79,13.57,45.58,1015.66,1997.00,3093.19,2915.00,3333.05,599.81,580.32,8.75,0000 0000 0000 0000 000000
2018-06-25 01:05:34,0.00,0.49,0.00,30.61,34.35,36.79,13.58,45.59,1015.71,1997.00,3093.29,2915.00,3333.03,600.35,580.94,8.80,0000 0000 0000 0000 000000
2018-06-25 01:10:35,0.00,0.49,0.00,30.59,34.33,36.76,13.47,45.53,1015.87,1997.00,3093.12,2915.00,3333.02,599.94,580.73,8.85,0000 0000 0000 0000 000000
2018-06-25 01:15:36,0.00,0.49,0.00,30.56,34.31,36.75,13.48,45.45,1016.02,1997.00,3093.08,2915.01,3333.07,599.86,580.72,8.90,0000 0000 0000 0000 000000
2018-06-25 01:20:38,-0.00,0.49,0.00,30.55,34.30,36.74,13.49,45.48,1016.08,1997.00,3093.11,2915.02,3333.15,599.99,581.05,8.95,0000 0000 0000 0000 000000
2018-06-25 01:25:39,-0.00,0.49,0.00,30.52,34.27,36.73,13.58,45.74,1016.12,1997.01,3093.15,2915.03,3333.21,600.07,580.93,9.00,0000 0000 0000 0000 000000
2018-06-25 01:30:40,0.00,0.49,0.00,30.50,34.25,36.71,13.48,45.45,1016.13,1997.00,3093.11,2915.04,3333.17,600.05,581.02,9.05,0000 0000 0000 0000 000000
2018-06-25 01:35:41,-0.00,0.49,0.00,30.48,34.24,36.69,13.55,45.61,1016.13,1997.03,3093.17,2915.12,3333.41,599.77,580.89,9.10,0000 0000 0000 0000 000000
2018-06-25 01:40:43,-0.00,0.49,0.00,30.45,34.21,36.68,13.52,45.68,1016.13,1997.01,3093.16,2915.21,3333.47,599.68,580.83,9.15,0000 0000 0000 0000 000000
2018-06-25 01:45:44,-0.01,0.49,0.00,30.42,34.20,36.65,13.53,45.51,1016.13,1997.04,3093.18,2915.50,3333.72,600.04,581.16,9.20,0000 0000 0000 0000 000000
2018-06-25 01:50:45,0.00,0.49,0.00,30.40,34.17,36.64,13.57,45.50,1016.13,1997.09,3093.12,2915.63,3333.75,600.12,581.27,9.25,0000 0000 0000 0000 000000
2018-06-25 01:55:46,0.00,0.49,0.00,30.37,34.15,36.62,13.51,45.57,1016.13,1997.19,3093.16,2915.83,3333.87,600.16,581.49,9.30,0000 0000 0000 0000 000000
2018-06-25 02:00:48,0.04,0.49,0.00,30.35,34.12,36.61,13.59,45.47,1016.13,1997.55,3093.30,2915.96,3333.97,600.08,581.34,9.35,0000 0000 0000 0000 000000
2018-06-25 02:05:49,0.01,0.49,0.00,30.32,34.10,36.58,13.62,45.83,1016.14,1997.80,3093.25,2915.97,3333.99,599.68,581.19,9.40,0000 0000 0000 0000 000000
2018-06-25 02:10:50,0.00,0.49,0.00,30.30,34.08,36.57,13.56,45.20,1016.15,1997.94,3093.54,2915.99,3333.99,600.26,581.58,9.45,0000 0000 0000 0000 000000
2018-06-25 02:15:52,0.00,0.49,0.00,30.28,34.06,36.54,13.52,45.27,1016.15,1997.98,3093.57,2915.99,3333.99,599.70,581.22,9.50,0000 0000 0000 0000 000000
2018-06-25 02:20:53,0.00,0.49,0.00,30.25,34.04,36.53,13.53,45.27,1016.16,1997.98,3093.38,2915.99,3333.99,600.04,581.57,9.55,0000 0000 0000 0000 000000
2018-06-25 02:25:54,0.00,0.49,0.00,30.22,34.02,36.51,13.53,45.46,1016.14,1997.99,3093.40,2916.00,3334.00,600.02,581.59,9.60,0000 0000 0000 0000 000000
2018-06-25 02:30:55,-0.00,0.49,0.00,30.20,34.00,36.48,13.55,45.32,1016.15,1997.99,3093.49,2916.02,3334.01,600.15,581.75,9.65,0000 0000 0000 0000 000000
2018-06-25 02:35:57,-0.00,0.49,0.00,30.17,33.97,36.48,13.52,45.32,1016.18,1997.99,3093.67,2916.10,3334.07,600.21,581.91,9.70,0000 0000 0000 0000 000000
2018-06-25 02:40:58,-0.01,0.49,0.00,30.15,33.95,36.47,13.49,45.34,1016.25,1998.00,3093.80,2916.36,3334.32,599.51,581.32,9.75,0000 0000 0000 0000 000000
2018-06-25 02:46:00,0.03,0.49,0.00,30.12,33.93,36.44,13.60,45.34,1016.32,1998.06,3093.32,2916.32,3334.33,600.11,582.04,9.80,0000 0000 0000 0000 000000
2018-06-25 02:51:01,-0.01,0.49,0.00,30.10,33.90,36.41,13.50,45.27,1016.48,1998.30,3093.47,2916.65,3334.61,599.90,582.11,9.85,0000 0000 0000 0000 000000
2018-06-25 02:56:02,0.02,0.49,0.00,30.07,33.88,36.39,13.56,45.27,1016.61,1998.62,3093.62,2916.92,3334.91,599.98,582.16,9.90,0000 0000 0000 0000 000000
2018-06-25 03:01:04,0.03,0.49,0.00,30.05,33.86,36.38,13.48,45.27,1016.62,1998.94,3093.15,2916.93,3334.92,599.78,581.97,9.95,0000 0000 0000 0000 000000
2018-06-25 03:06:05,0.01,0.50,0.00,30.02,33.83,36.36,13.56,45.23,1016.62,1998.98,3093.03,2916.94,3334.84,599.97,582.10,10.00,0000 0000 0000 0000 000000
2018-06-25 03:11:06,0.00,0.50,0.00,30.00,33.81,36.33,13.53,45.27,1016.62,1998.99,3093.00,2916.96,3334.71,599.78,582.00,10.05,0000 0000 0000 0000 000000
2018-06-25 03:16:07,0.00,0.50,0.00,29.96,33.78,36.30,13.58,45.31,1016.62,1998.99,3093.00,2916.93,3334.58,599.99,582.34,10.10,0000 0000 0000 0000 000000
2018-06-25 03:21:08,0.00,0.50,0.00,29.93,33.76,36.30,13.59,45.27,1016.63,1999.00,3093.00,2916.94,3334.57,599.95,582.37,10.15,0000 0000 0000 0000 000000
2018-06-25 03:26:09,0.01,0.50,0.00,29.91,33.73,36.27,13.57,45.15,1016.65,1999.00,3092.99,2916.93,3334.38,599.68,582.24,10.20,0000 0000 0000 0000 000000
2018-06-25 03:31:10,0.00,0.50,0.00,29.89,33.70,36.22,13.62,45.19,1016.75,1999.06,3092.98,2916.98,3334.64,600.37,582.89,10.25,0000 0000 0000 0000 000000
2018-06-25 03:36:12,0.04,0.50,0.00,29.85,33.68,36.26,13.65,45.23,1016.91,1999.48,3092.98,2916.99,3334.91,600.20,582.91,10.30,0000 0000 0000 0000 000000
2018-06-25 03:41:13,0.03,0.50,0.00,29.82,33.65,36.26,13.66,45.43,1016.93,1999.88,3092.97,2916.99,3334.95,600.23,583.05,10.35,0000 0000 0000 0000 000000
2018-06-25 03:46:15,0.01,0.50,0.00,29.79,33.62,36.27,13.60,45.22,1016.97,1999.96,3092.90,2916.99,3334.91,599.69,582.63,10.40,0000 0000 0000 0000 000000
2018-06-25 03:51:16,0.00,0.50,0.00,29.76,33.59,36.21,13.62,45.16,1016.98,1999.98,3092.91,2917.00,3334.97,600.33,583.35,10.45,0000 0000 0000 0000 000000
2018-06-25 03:56:17,0.00,0.50,0.00,29.73,33.56,36.11,13.57,45.11,1017.08,1999.99,3092.76,2917.01,3334.99,599.73,582.71,10.50,0000 0000 0000 0000 000000
2018-06-25 04:01:19,0.00,0.50,0.00,29.69,33.53,36.09,13.60,45.33,1017.10,1999.99,3092.80,2917.02,3334.99,600.18,583.31,10.55,0000 0000 0000 0000 000000
2018-06-25 04:06:20,-0.00,0.50,0.00,29.67,33.50,36.12,13.49,45.23,1017.12,1999.99,3092.79,2917.02,3334.98,599.96,583.31,10.60,0000 0000 0000 0000 000000
2018-06-25 04:11:21,-0.01,0.50,0.00,29.64,33.47,36.05,13.59,45.33,1017.13,2000.04,3092.84,2917.20,3334.99,599.96,583.06,10.65,0000 0000 0000 0000 000000
2018-06-25 04:16:22,0.00,0.50,0.00,29.61,33.44,36.05,13.64,45.35,1017.13,2000.10,3092.89,2917.38,3334.99,600.09,583.41,10.70,0000 0000 0000 0000 000000
2018-06-25 04:21:23,0.00,0.50,0.00,29.57,33.41,36.08,13.57,45.14,1017.16,2000.30,3092.94,2917.76,3334.99,599.76,583.17,10.75,0000 0000 0000 0000 000000
2018-06-25 04:26:25,0.05,0.50,0.00,29.54,33.38,35.99,13.66,45.12,1017.20,2000.79,3092.92,2917.88,3334.99,600.07,583.63,10.80,0000 0000 0000 0000 000000
2018-06-25 04:31:26,0.00,0.50,0.00,29.51,33.35,35.94,13.63,45.61,1017.35,2000.96,3092.95,2917.95,3335.00,600.26,583.85,10.86,0000 0000 0000 0000 000000
2018-06-25 04:36:27,0.00,0.50,0.00,29.48,33.31,35.91,13.67,45.89,1017.52,2000.99,3092.81,2917.97,3335.01,600.18,583.96,10.91,0000 0000 0000 0000 000000
2018-06-25 04:41:28,-0.00,0.50,0.00,29.44,33.28,35.87,13.69,46.05,1017.57,2000.99,3092.90,2917.99,3335.14,600.43,584.13,10.96,0000 0000 0000 0000 000000
2018-06-25 04:46:30,-0.00,0.50,0.00,29.41,33.25,35.86,13.60,45.86,1017.59,2001.00,3092.97,2918.00,3335.45,599.63,583.60,11.01,0000 0000 0000 0000 000000
2018-06-25 04:51:31,0.01,0.50,0.00,29.37,33.21,35.86,13.61,46.09,1017.59,2001.06,3092.99,2918.01,3335.85,600.13,584.14,11.06,0000 0000 0000 0000 000000
2018-06-25 04:56:32,0.01,0.50,0.00,29.33,33.18,35.89,13.60,45.92,1017.61,2001.20,3092.98,2918.04,3335.95,599.98,584.09,11.11,0000 0000 0000 0000 000000
2018-06-25 05:01:34,0.03,0.50,0.00,29.30,33.15,35.87,13.57,45.86,1017.80,2001.55,3092.99,2918.17,3335.98,600.06,584.34,11.16,0000 0000 0000 0000 000000
2018-06-25 05:06:35,0.01,0.51,0.00,29.26,33.12,35.88,13.57,45.91,1018.02,2001.93,3092.99,2918.57,3335.99,599.93,584.60,11.21,0000 0000 0000 0000 000000
2018-06-25 05:11:36,-0.00,0.51,0.00,29.22,33.09,35.86,13.63,45.96,1018.07,2001.98,3092.99,2918.73,3335.99,600.04,584.64,11.26,0000 0000 0000 0000 000000
2018-06-25 05:16:38,-0.00,0.51,0.00,29.19,33.05,35.81,13.66,45.89,1018.08,2001.99,3092.99,2918.89,3335.99,600.10,584.78,11.31,0000 0000 0000 0000 000000
2018-06-25 05:21:39,0.00,0.51,0.00,29.15,33.01,35.78,13.66,45.95,1018.08,2001.99,3092.99,2918.94,3335.99,599.81,584.60,11.36,0000 0000 0000 0000 000000
2018-06-25 05:26:40,0.00,0.51,0.00,29.11,32.98,35.73,13.65,45.94,1018.08,2001.99,3092.95,2918.96,3335.99,599.89,584.70,11.41,0000 0000 0000 0000 000000
2018-06-25 05:31:42,0.00,0.51,0.00,29.07,32.95,35.72,13.64,45.75,1018.09,2002.06,3092.93,2918.99,3335.99,600.03,584.93,11.46,0000 0000 0000 0000 000000
2018-06-25 05:36:43,0.03,0.51,0.00,29.04,32.92,35.69,13.60,45.87,1018.16,2002.32,3092.95,2918.99,3336.02,599.56,584.63,11.51,0000 0000 0000 0000 000000
2018-06-25 05:41:45,0.03,0.51,0.00,28.99,32.88,35.65,13.61,45.93,1018.40,2002.87,3092.97,2919.02,3336.25,600.07,585.31,11.56,0000 0000 0000 0000 000000
2018-06-25 05:46:46,0.01,0.51,0.00,28.96,32.85,35.62,13.67,45.88,1018.57,2002.96,3092.98,2919.06,3336.47,599.90,585.29,11.61,0000 0000 0000 0000 000000
2018-06-25 05:51:47,0.00,0.51,0.00,28.91,32.81,35.59,13.68,46.00,1018.57,2002.99,3092.96,2919.10,3336.68,600.27,585.78,11.66,0000 0000 0000 0000 000000
2018-06-25 05:56:49,-0.01,0.51,0.00,28.88,32.78,35.55,13.63,45.96,1018.58,2003.00,3092.96,2919.37,3336.89,599.84,585.40,11.71,0000 0000 0000 0000 000000
2018-06-25 06:01:50,-0.00,0.51,0.00,28.84,32.74,35.52,13.68,45.98,1018.66,2003.02,3092.98,2919.80,3336.96,599.85,585.53,11.76,0000 0000 0000 0000 000000
2018-06-25 06:06:51,0.01,0.51,0.00,28.80,32.70,35.48,13.70,45.90,1018.95,2003.12,3092.98,2919.86,3336.98,600.32,586.19,11.81,0000 0000 0000 0000 000000
2018-06-25 06:11:52,0.04,0.51,0.00,28.76,32.66,35.44,13.61,45.97,1019.01,2003.57,3092.97,2919.97,3336.99,599.48,585.53,11.86,0000 0000 0000 0000 000000
2018-06-25 06:16:54,0.03,0.51,0.00,28.72,32.63,35.41,13.73,45.90,1019.03,2003.92,3092.99,2919.99,3336.99,600.53,586.64,11.91,0000 0000 0000 0000 000000
2018-06-25 06:21:55,0.00,0.51,0.00,28.68,32.59,35.37,13.69,46.02,1019.06,2003.99,3092.99,2919.99,3336.99,600.13,586.34,11.96,0000 0000 0000 0000 000000
2018-06-25 06:26:56,0.00,0.51,0.00,28.64,32.55,35.33,13.66,45.80,1019.05,2003.99,3092.99,2919.99,3337.00,600.16,586.43,12.01,0000 0000 0000 0000 000000
2018-06-25 06:31:57,-0.00,0.51,0.00,28.60,32.51,35.29,13.64,45.86,1019.06,2004.03,3092.99,2920.06,3337.18,600.00,586.45,12.06,0000 0000 0000 0000 000000
2018-06-25 06:36:58,-0.01,0.51,0.00,28.56,32.48,35.25,13.72,46.06,1019.06,2004.09,3092.99,2920.21,3337.44,600.26,586.69,12.11,0000 0000 0000 0000 000000
2018-06-25 06:41:59,0.04,0.51,0.00,28.52,32.44,35.23,13.78,46.05,1019.08,2004.60,3092.99,2920.66,3337.78,600.25,586.72,12.16,0000 0000 0000 0000 000000
2018-06-25 06:47:01,0.01,0.52,0.00,28.48,32.40,35.18,13.66,46.04,1019.09,2004.95,3092.99,2920.94,3337.96,599.90,586.64,12.21,0000 0000 0000 0000 000000
2018-06-25 06:52:02,0.00,0.52,0.00,28.44,32.37,35.16,13.66,46.03,1019.34,2004.99,3092.99,2920.99,3337.99,599.87,586.69,12.26,0000 0000 0000 0000 000000
2018-06-25 06:57:03,0.00,0.52,0.00,28.40,32.33,35.12,13.76,46.05,1019.50,2004.99,3092.99,2920.99,3337.99,600.08,587.17,12.31,0000 0000 0000 0000 000000
2018-06-25 07:02:04,0.00,0.52,0.00,28.36,32.29,35.08,13.72,46.00,1019.53,2005.00,3092.99,2920.99,3337.99,599.92,587.04,12.36,0000 0000 0000 0000 000000
2018-06-25 07:07:05,0.01,0.52,0.00,28.32,32.25,35.04,13.66,45.98,1019.51,2005.13,3092.99,2921.00,3338.00,600.03,587.23,12.41,0000 0000 0000 0000 000000
2018-06-25 07:12:07,0.04,0.52,0.00,28.28,32.21,35.00,13.78,46.07,1019.49,2005.57,3092.99,2921.06,3338.07,600.33,587.58,12.46,0000 0000 0000 0000 000000
2018-06-25 07:17:08,-0.00,0.52,0.00,28.24,32.17,34.96,13.71,46.08,1019.53,2005.94,3092.99,2921.39,3338.43,600.02,587.36,12.51,0000 0000 0000 0000 000000
2018-06-25 07:22:09,-0.01,0.52,0.00,28.20,32.13,34.92,13.70,46.11,1019.55,2005.99,3092.99,2921.76,3338.84,599.63,587.02,12.56,0000 0000 0000 0000 000000
2018-06-25 07:27:10,-0.00,0.52,0.00,28.16,32.09,34.89,13.80,46.12,1019.55,2005.99,3092.99,2921.85,3338.89,600.28,587.66,12.61,0000 0000 0000 0000 000000
2018-06-25 07:32:11,0.00,0.52,0.00,28.12,32.06,34.84,13.73,46.06,1019.55,2006.02,3092.99,2921.97,3338.96,599.95,587.62,12.66,0000 0000 0000 0000 000000
2018-06-25 07:37:13,0.01,0.52,0.00,28.08,32.02,34.81,13.75,46.16,1019.56,2006.21,3092.99,2921.99,3338.99,599.86,587.55,12.71,0000 0000 0000 0000 000000
2018-06-25 07:42:14,0.05,0.52,0.00,28.03,31.98,34.76,13.72,46.17,1019.75,2006.70,3092.99,2921.99,3338.99,600.00,587.85,12.76,0000 0000 0000 0000 000000
2018-06-25 07:47:15,0.01,0.52,0.00,27.90,31.93,34.73,13.74,46.20,1019.89,2006.96,3092.99,2922.00,3339.00,600.37,588.59,12.81,0000 0000 0000 0000 000000
2018-06-25 07:52:17,0.00,0.52,0.00,27.76,31.89,34.69,13.85,46.21,1019.89,2006.99,3092.99,2922.06,3339.07,600.34,588.81,12.86,0000 0000 0000 0000 000000
2018-06-25 07:57:18,-0.02,0.52,0.00,27.61,31.84,34.62,13.70,46.17,1019.98,2007.01,3093.00,2922.56,3339.71,599.80,588.65,12.91,0000 0000 0000 0000 000000
2018-06-25 08:02:19,0.03,0.52,0.00,27.45,31.78,34.54,13.80,46.21,1020.03,2007.30,3093.03,2922.96,3339.98,600.20,589.36,12.96,0000 0000 0000 0000 000000
2018-06-25 08:07:20,0.04,0.52,0.00,27.28,31.71,34.50,13.81,46.23,1020.03,2007.90,3093.15,2923.01,3340.02,600.32,589.75,13.01,0000 0000 0000 0000 000000
2018-06-25 08:12:21,-0.04,0.52,0.00,27.14,31.64,34.37,13.83,46.17,1020.03,2007.99,3093.74,2923.48,3340.74,600.14,589.87,13.06,0000 0000 0000 0000 000000
2018-06-25 08:17:22,-0.00,0.52,0.00,26.96,31.57,34.19,13.86,46.29,1020.04,2008.04,3093.96,2923.96,3340.99,600.16,590.28,13.11,0000 0000 0000 0000 000000
2018-06-25 08:22:24,0.06,0.53,0.00,26.74,31.49,33.92,13.88,46.21,1020.05,2008.72,3093.99,2924.04,3341.41,600.46,590.99,13.16,0000 0000 0000 0000 000000
2018-06-25 08:27:25,-0.02,0.53,0.00,26.54,31.40,33.65,13.82,46.14,1020.06,2008.99,3094.21,2924.75,3341.97,600.17,591.04,13.21,0000 0000 0000 0000 000000
2018-06-25 08:32:27,-0.00,0.52,0.00,26.52,31.31,33.53,13.82,46.27,1020.06,2009.23,3094.94,2925.07,3342.60,599.95,590.91,13.27,0000 0000 0000 0000 000000
2018-06-25 08:37:28,0.03,0.53,0.00,26.57,31.22,33.45,13.80,46.22,1020.05,2009.90,3095.09,2925.81,3343.01,600.07,591.01,13.32,0000 0000 0000 0000 000000
2018-06-25 08:42:29,-0.02,0.53,0.00,26.55,31.13,33.42,13.81,46.30,1020.05,2010.01,3095.83,2926.02,3343.68,600.10,591.18,13.37,0000 0000 0000 0000 000000
2018-06-25 08:47:31,0.03,0.53,0.00,26.52,31.04,33.40,13.86,46.34,1020.05,2010.41,3095.99,2926.73,3343.99,600.15,591.17,13.42,0000 0000 0000 0000 000000
2018-06-25 08:52:32,0.00,0.53,0.00,26.51,30.96,33.32,13.82,46.38,1020.07,2010.95,3096.36,2927.02,3344.64,599.99,591.03,13.47,0000 0000 0000 0000 000000
2018-06-25 08:57:33,-0.02,0.53,0.00,26.48,30.88,33.28,13.81,46.47,1020.08,2011.00,3096.94,2927.67,3345.00,600.08,591.18,13.52,0000 0000 0000 0000 000000
2018-06-25 09:02:34,0.06,0.53,0.00,26.47,30.80,33.24,13.83,46.35,1020.18,2011.57,3097.00,2927.99,3345.62,600.07,591.38,13.57,0000 0000 0000 0000 000000
2018-06-25 09:07:35,-0.01,0.53,0.00,26.47,30.73,33.17,13.86,46.48,1020.44,2011.98,3097.48,2928.25,3345.99,599.90,591.28,13.62,0000 0000 0000 0000 000000
2018-06-25 09:12:37,-0.03,0.53,0.00,26.46,30.66,33.16,13.79,46.41,1020.51,2012.00,3097.98,2928.94,3346.58,599.89,591.47,13.67,0000 0000 0000 0000 000000
2018-06-25 09:17:38,0.04,0.53,0.00,26.45,30.60,33.14,13.78,46.39,1020.52,2012.31,3098.01,2929.00,3346.98,600.02,591.46,13.72,0000 0000 0000 0000 000000
2018-06-25 09:22:39,0.02,0.53,0.00,26.45,30.54,33.14,13.82,46.39,1020.52,2012.89,3098.29,2929.38,3347.07,600.23,591.75,13.77,0000 0000 0000 0000 000000
2018-06-25 09:27:40,-0.02,0.53,0.00,26.45,30.49,33.16,13.80,46.33,1020.52,2012.99,3098.93,2929.96,3347.77,599.90,591.35,13.82,0000 0000 0000 0000 000000
2018-06-25 09:32:41,0.00,0.53,0.00,26.42,30.43,33.13,13.76,46.26,1020.53,2013.00,3098.99,2930.01,3347.99,599.62,591.17,13.87,0000 0000 0000 0000 000000
2018-06-25 09:37:42,0.02,0.53,0.00,26.42,30.39,33.10,13.84,46.35,1020.52,2013.22,3099.00,2930.18,3348.03,600.05,591.60,13.92,0000 0000 0000 0000 000000
2018-06-25 09:42:43,0.02,0.53,0.00,26.40,30.34,33.05,13.81,46.36,1020.53,2013.83,3099.34,2930.84,3348.68,599.71,591.33,13.97,0000 0000 0000 0000 000000
2018-06-25 09:47:44,-0.00,0.53,0.00,26.40,30.29,33.03,13.73,46.29,1020.54,2013.98,3099.93,2930.99,3348.99,599.38,591.02,14.02,0000 0000 0000 0000 000000
2018-06-25 09:52:46,0.00,0.53,0.00,26.38,30.25,32.99,13.80,46.45,1020.55,2014.00,3099.98,2931.03,3349.03,599.84,591.31,14.07,0000 0000 0000 0000 000000
2018-06-25 09:57:47,-0.02,0.53,0.00,26.37,30.21,32.97,13.81,46.35,1020.58,2014.04,3099.99,2931.46,3349.34,600.11,591.72,14.12,0000 0000 0000 0000 000000
2018-06-25 10:02:49,0.02,0.53,0.00,26.35,30.17,32.95,13.79,46.38,1020.67,2014.32,3100.00,2931.88,3349.85,600.06,591.78,14.17,0000 0000 0000 0000 000000
2018-06-25 10:07:49,0.04,0.53,0.00,26.33,30.14,32.93,13.80,46.22,1020.95,2014.88,3100.05,2931.99,3349.98,600.00,591.83,14.22,0000 0000 0000 0000 000000
2018-06-25 10:12:51,-0.00,0.53,0.00,26.32,30.11,32.92,13.91,46.47,1021.00,2014.98,3100.58,2931.99,3349.99,600.19,592.21,14.27,0000 0000 0000 0000 000000
2018-06-25 10:17:52,-0.00,0.53,0.00,26.30,30.07,32.89,13.89,46.46,1021.01,2015.00,3100.90,2932.04,3350.11,600.49,592.42,14.32,0000 0000 0000 0000 000000
2018-06-25 10:22:53,-0.02,0.53,0.00,26.29,30.04,32.88,13.80,46.41,1021.00,2015.02,3100.99,2932.35,3350.64,599.85,591.89,14.37,0000 0000 0000 0000 000000
2018-06-25 10:27:54,0.00,0.53,0.00,26.27,30.01,32.85,13.87,46.48,1021.00,2015.12,3100.99,2932.82,3350.93,600.28,592.37,14.42,0000 0000 0000 0000 000000
2018-06-25 10:32:55,0.03,0.53,0.00,26.27,29.98,32.82,13.80,46.55,1021.01,2015.39,3100.99,2932.97,3350.99,599.74,591.82,14.47,0000 0000 0000 0000 000000
2018-06-25 10:37:56,0.03,0.53,0.00,26.25,29.95,32.79,13.88,46.51,1021.02,2015.83,3101.00,2932.99,3350.99,600.42,592.56,14.52,0000 0000 0000 0000 000000
2018-06-25 10:42:58,0.01,0.53,0.00,26.23,29.92,32.78,13.86,46.50,1021.03,2015.94,3101.02,2932.99,3351.00,600.41,592.61,14.57,0000 0000 0000 0000 000000
2018-06-25 10:47:59,-0.01,0.53,0.00,26.22,29.90,32.62,13.89,46.48,1021.06,2015.99,3101.21,2933.01,3351.17,600.28,592.43,14.62,0000 0000 0000 0000 000000
2018-06-25 10:53:01,-0.02,0.53,0.00,26.22,29.87,32.39,13.84,46.46,1021.20,2015.99,3101.71,2933.16,3351.75,600.07,592.38,14.67,0000 0000 0000 0000 000000
2018-06-25 10:58:02,-0.00,0.53,0.00,26.41,29.86,32.30,13.76,46.44,1021.40,2015.99,3101.96,2933.33,3351.91,599.61,591.63,14.72,0000 0000 0000 0000 000000
2018-06-25 11:03:03,-0.00,0.53,0.00,26.64,29.85,32.26,13.81,46.38,1021.49,2015.99,3101.98,2933.36,3351.92,600.14,591.82,14.77,0000 0000 0000 0000 000000
2018-06-25 11:08:05,0.00,0.53,0.00,26.81,29.86,32.25,13.81,46.38,1021.50,2015.99,3101.98,2933.42,3351.93,600.06,591.33,14.82,0000 0000 0000 0000 000000
2018-06-25 11:13:06,0.01,0.53,0.00,26.95,29.87,32.29,13.71,46.42,1021.50,2015.99,3101.98,2933.13,3351.64,600.06,591.15,14.87,0000 0000 0000 0000 000000
2018-06-25 11:18:07,0.00,0.53,0.00,27.07,29.90,32.35,13.80,46.38,1021.50,2015.99,3101.94,2933.01,3351.17,600.23,591.01,14.92,0000 0000 0000 0000 000000
2018-06-25 11:23:09,0.01,0.53,0.00,27.17,29.92,32.42,13.74,46.37,1021.52,2015.99,3101.48,2933.00,3351.02,600.11,590.63,14.97,0000 0000 0000 0000 000000
2018-06-25 11:28:10,0.00,0.53,0.00,27.23,29.96,32.47,13.75,46.25,1021.54,2015.98,3101.05,2932.99,3350.99,600.31,590.74,15.02,0000 0000 0000 0000 000000
2018-06-25 11:33:12,0.00,0.53,0.00,27.27,29.99,32.54,13.76,46.35,1021.64,2015.88,3101.00,2932.74,3350.72,600.01,590.63,15.07,0000 0000 0000 0000 000000
2018-06-25 11:38:13,-0.01,0.53,0.00,27.30,30.03,32.60,13.71,46.24,1021.77,2015.46,3100.94,2932.12,3350.10,600.01,590.49,15.12,0000 0000 0000 0000 000000
2018-06-25 11:43:14,-0.01,0.53,0.00,27.32,30.07,32.65,13.69,46.22,1021.85,2015.15,3100.53,2932.00,3350.00,600.23,590.72,15.17,0000 0000 0000 0000 000000
2018-06-25 11:48:15,0.00,0.53,0.00,27.35,30.11,32.72,13.76,46.31,1021.96,2015.02,3100.04,2931.98,3349.88,600.26,590.72,15.22,0000 0000 0000 0000 000000
2018-06-25 11:53:16,0.02,0.53,0.00,27.34,30.15,32.78,13.72,46.18,1021.99,2014.99,3099.99,2931.59,3349.11,600.15,590.79,15.27,0000 0000 0000 0000 000000
2018-06-25 11:58:17,0.01,0.53,0.00,27.35,30.19,32.83,13.74,46.17,1022.00,2014.98,3099.85,2931.05,3349.00,600.11,590.65,15.32,0000 0000 0000 0000 000000
2018-06-25 12:03:19,-0.00,0.53,0.00,27.34,30.24,32.87,13.69,46.08,1022.13,2014.92,3099.18,2931.00,3348.96,599.73,590.40,15.37,0000 0000 0000 0000 000000
2018-06-25 12:08:20,-0.03,0.53,0.00,27.32,30.27,32.91,13.85,46.33,1022.37,2014.48,3099.01,2930.99,3348.48,600.14,590.92,15.42,0000 0000 0000 0000 000000
2018-06-25 12:13:22,-0.00,0.53,0.00,27.32,30.31,32.97,13.77,46.19,1022.45,2014.11,3098.98,2930.57,3348.02,599.90,590.74,15.47,0000 0000 0000 0000 000000
2018-06-25 12:18:23,0.01,0.53,0.00,27.30,30.34,33.01,13.72,46.17,1022.48,2014.02,3098.53,2930.07,3347.98,600.02,590.91,15.52,0000 0000 0000 0000 000000
2018-06-25 12:23:24,0.01,0.53,0.00,27.27,30.37,33.05,13.77,46.14,1022.48,2014.00,3098.03,2930.00,3347.54,600.05,590.98,15.57,0000 0000 0000 0000 000000
2018-06-25 12:28:25,0.00,0.53,0.00,27.25,30.41,33.08,13.76,45.98,1022.53,2014.00,3098.00,2929.98,3347.07,600.16,591.18,15.62,0000 0000 0000 0000 000000
2018-06-25 12:33:27,0.01,0.53,0.00,27.22,30.43,33.10,13.77,46.17,1022.77,2013.97,3097.92,2929.58,3347.00,599.93,591.26,15.68,0000 0000 0000 0000 000000
2018-06-25 12:38:28,0.01,0.54,0.00,27.19,30.45,33.14,13.79,46.05,1022.83,2013.92,3097.41,2929.09,3346.95,599.91,591.22,15.73,0000 0000 0000 0000 000000
2018-06-25 12:43:29,-0.00,0.54,0.00,27.16,30.47,33.13,13.83,46.10,1022.85,2013.81,3097.05,2929.00,3346.76,600.35,591.75,15.78,0000 0000 0000 0000 000000
2018-06-25 12:48:30,-0.02,0.54,0.00,27.15,30.50,33.16,13.78,46.05,1022.83,2013.59,3097.00,2929.00,3346.29,600.00,591.38,15.83,0000 0000 0000 0000 000000
2018-06-25 12:53:32,-0.02,0.53,0.00,27.12,30.51,33.20,13.79,46.12,1022.89,2013.38,3097.00,2929.00,3346.12,599.86,591.44,15.88,0000 0000 0000 0000 000000